Content
SEND FEEDBACK

Daily
Averages
Monthly
Summary
United States of America

LAS PLUMAS, CALIFORNIA


Home > North America > United States > California
Elevation: 1391 feet     Latitude: 39 41N     Longitude: 121 29W

WEATHER
 
SELECT A DAY
Number of Records: 152,239;   Date Range: 6/17/98 - 7/20/14
 
SHARE

PRINT THIS DATA

[ ← Previous Day ]
WEATHER ALMANAC - FEBRUARY 13, 2013
[ Next Day → ]
[ °C ]   °F
Weather ElementAverageHighLow
Temperature48.2 °F62.1 °F (3:53 pm)36 °F (4:53 am)
Dewpoint39.2 °F43 °F (12:53 pm)35.1 °F (3:53 am)
Humidity73 %97 % (4:53 am)46 % (3:53 pm)
Barometer30.30 in30.36 in (7:53 am)30.23 in (3:53 pm)
Wind Speed2.4 mph6.9 mph (3:53 pm)
Weather ElementAverage
Visibility9.6 mi
Wind DirectionENE (54.1 °)

Weather ElementTotal
Precipitation---
Heating Degree Days16 (Base 65)
Averaged from 22 records on February 13, 2013
WEATHER CONDITIONS BREAKOUT
WIND DIRECTION BREAKOUT
WEATHER BY HOUR - FEBRUARY 13, 2013
[ °C ]   °F
Local TimeTemperatureDewpointHumidityBarometerVisibilityWind DirectionWind SpeedGust SpeedPrecipitationEventsConditions
1:53 AM43.0 °F37.0 °F80 %30.35 in10.0 miCalmClear
2:53 AM37.0 °F36.0 °F96 %30.35 in9.0 miCalmClear
3:53 AM39.0 °F35.1 °F86 %30.34 in10.0 miCalmClear
4:53 AM36.0 °F35.1 °F97 %30.35 in8.0 miCalmClear
5:53 AM37.9 °F35.1 °F89 %30.35 in9.0 miCalmClear
6:53 AM37.9 °F35.1 °F89 %30.35 in9.0 miCalmClear
7:53 AM39.0 °F36.0 °F89 %30.36 in7.0 miCalmClear
8:53 AM46.0 °F37.9 °F73 %30.36 in10.0 miCalmClear
9:53 AM50.0 °F39.0 °F66 %30.36 in10.0 miSouth (170°)3.5 mphClear
10:53 AM54.0 °F39.9 °F59 %30.35 in10.0 miCalmClear
12:53 PM55.9 °F43.0 °F62 %30.30 in10.0 miWest (260°)4.6 mphClear
1:53 PM57.9 °F43.0 °F58 %30.27 in10.0 miVariable4.6 mphClear
2:53 PM60.1 °F43.0 °F53 %30.25 in10.0 miCalmClear
3:53 PM62.1 °F41.0 °F46 %30.23 in10.0 miSSE (160°)6.9 mphClear
4:53 PM60.1 °F41.0 °F49 %30.23 in10.0 miSouth (170°)6.9 mphClear
5:53 PM55.0 °F39.9 °F57 %30.23 in10.0 miSE (140°)5.8 mphClear
6:53 PM52.0 °F41.0 °F66 %30.24 in10.0 miSE (130°)5.8 mphClear
7:53 PM51.1 °F41.0 °F68 %30.25 in10.0 miENE (70°)4.6 mphClear
8:53 PM48.9 °F41.0 °F74 %30.25 in10.0 miEast (80°)5.8 mphClear
9:53 PM46.9 °F41.0 °F80 %30.26 in10.0 miCalmClear
10:53 PM45.0 °F41.0 °F86 %30.27 in10.0 miNorth (10°)3.5 mphClear
11:53 PM46.0 °F41.0 °F83 %30.27 in10.0 miCalmClear
Hourly data recorded from KOVE, located miles away from Las Plumas, California







STORIES FROM OUR PARTNERS